Regional Weather Roundup
Issued by NWS

Home | Current Version | Previous Version | Graphics & Text | Print | Product List | Glossary On
Versions: 1 2 3 4 5 6 7 8 9 10 11 12 13 14 15 16 17 18 19 20 21 22 23 24 25 26 27 28 29 30 31 32 33 34 35 36 37 38 39 40 41 42 43 44 45 46 47 48 49 50
367
ASUS44 KJAN 190410
RWRMS

MISSISSIPPI HOURLY WEATHER ROUNDUP
NATIONAL WEATHER SERVICE JACKSON MS
1100 PM CDT THU SEP 18 2014

NOTE: "FAIR: INDICATES FEW OR NO CLOUDS BELOW 12,000 FEET WITH NO
SIGNIFICANT WEATHER AND/OR OBSTRUCTIONS TO VISIBILITY.

MSZ001>002-007>008-010>013-018>021-025>028-034>036-190500-
NORTHWEST MISSISSIPPI

CITY           SKY/WX    TMP DP  RH WIND       PRES   REMARKS
CLARKSDALE     FAIR      68  68 100 CALM      29.99R
CLEVELAND      FAIR      71  71  99 CALM      29.96S
GREENWOOD      PTCLDY    70  67  90 CALM      29.96R
GREENVILLE     PTCLDY    73  67  81 CALM      29.95S
GRENADA        FAIR      68  68 100 CALM      29.98S
OLIVE BRANCH   CLEAR     68  68 100 NE5       30.00S
OXFORD         FAIR      64  64 100 E5        30.02R
TUNICA         CLEAR     64  64 100 N6        30.00R FOG
$$

MSZ003>006-009-014>017-022>024-029>033-037>039-190500-
NORTHEAST MISSISSIPPI

CITY           SKY/WX    TMP DP  RH WIND       PRES   REMARKS
COLUMBUS AFB   LGT RAIN  69  68  98 NE7       30.01S
CORINTH        CLOUDY    70  66  88 CALM      30.01S
GOLDN TRIANGLE CLOUDY    70  63  78 NE8       30.01R
STARKVILLE     FAIR      70  68  94 CALM      30.00R FOG
TUPELO         CLOUDY    69  67  93 E3        30.00F
$$

MSZ040-058-190500-
CENTRAL MISSISSIPPI

CITY           SKY/WX    TMP DP  RH WIND       PRES   REMARKS
JACKSON INTL   CLOUDY    71  67  87 SE8       29.97S
JACKSON HAWKNS CLOUDY    72  66  81 SE9       29.98R
MERIDIAN KEY   RAIN      69  67  93 W6        30.01F
MERIDIAN NAS   LGT RAIN  71  69  93 W8        30.03R
RAYMOND        FAIR      72  66  83 SE9       29.96F
VICKSBURG      MOCLDY    73  67  81 SE7       29.95S
$$

MSZ059>079-190500-
SOUTH MISSISSIPPI

CITY           SKY/WX    TMP DP  RH WIND       PRES   REMARKS
BROOKHAVEN     FAIR      73  68  83 CALM      29.99F
COLUMBIA       RAIN      72  68  88 CALM      29.96F
HATTIESBURG    CLOUDY    73  69  87 NW5       29.98F
MCCOMB         CLOUDY    71  68  90 CALM      29.97S
NATCHEZ        CLOUDY    75  72  88 S9        29.96R
PINE BELT      CLOUDY    72  66  83 N6        29.99F
$$

MSZ080>082-190500-
COASTAL MISSISSIPPI

CITY           SKY/WX    TMP DP  RH WIND       PRES   REMARKS
BILOXI         CLOUDY    73  70  91 NE3       29.94R
PASCAGOULA     CLOUDY    73  69  87 CALM      29.94R
GULFPORT       CLOUDY    73  71  93 CALM      29.94R
$$



USA.gov is the U.S. government's official web portal to all federal, state and local government web resources and services.